Tracadie, Nova Scotia

8:15 AM ADT on May 20, 2018 (GMT -0300)
Tracadie

Weather History for CXTD - September, 2013

Change the Weather History Date:

Monday, September 23, 2013

  Actual Average Record
Temperature  
Mean Temperature 60 °F -  
Max Temperature 68 °F - - ()
Min Temperature 52 °F - - ()
Degree Days  
Heating Degree Days 4    
Growing Degree Days 10 (Base 50)    
Moisture  
Dew Point 60 °F    
Average Humidity 87    
Maximum Humidity 92    
Minimum Humidity 76    
Precipitation  
Precipitation 0.94 in - - ()
Sea Level Pressure  
Sea Level Pressure 29.64 in    
Wind  
Wind Speed 10 mph ()    
Max Wind Speed 15 mph    
Max Gust Speed 24 mph    
T = Trace of Precipitation, MM = Missing Value Source: Averaged Metar Reports

Daily Weather History Graph

Daily Weather History Graph

Search for Another Location

Airport or City:

Astronomy

Sep. 23, 2013 Rise Set
Actual Time 6:55 AM ADT 7:01 PM ADT
Civil Twilight 6:25 AM ADT 7:31 PM ADT
Nautical Twilight 5:50 AM ADT 8:06 PM ADT
Astronomical Twilight 5:15 AM ADT 8:41 PM ADT
Moon 9:16 PM ADT (9/23) 11:23 AM ADT (9/23)
Length of Visible Light 13h 05m
Length of Day
12h 06m
Waning Gibbous, 82% of the Moon is Illuminated
Sep 23
Waning Gibbous
Sep 27
Last Quarter
Oct 4
New
Oct 11
First Quarter
Oct 18
Full

Hourly Weather History & Observations

Time (ADT) Temp. Dew Point Humidity Pressure Visibility Wind Dir Wind Speed Gust Speed Precip Events Conditions
12:00 AM 67.5 °F 64.0 °F 89% 29.76 in - SSE 15.0 mph - N/A   Unknown
1:00 AM 68.0 °F 65.1 °F 90% 29.74 in - South 13.8 mph 20.7 mph N/A   Unknown
2:00 AM 68.7 °F 65.5 °F 89% 29.71 in - South 15.0 mph 23.0 mph N/A   Unknown
3:00 AM 69 °F 65 °F 84% 29.69 in - South 15.0 mph - -  
3:00 AM 68.5 °F 65.1 °F 89% 29.69 in - South 15.0 mph 20.7 mph N/A   Unknown
4:00 AM 68.2 °F 64.2 °F 87% 29.67 in - SSE 15.0 mph 24.2 mph N/A   Unknown
5:00 AM 68.5 °F 66.0 °F 92% 29.65 in - South 8.1 mph - 0.06 in   Unknown
6:00 AM 67.3 °F 64.2 °F 90% 29.64 in - South 13.8 mph 20.7 mph 0.67 in   Unknown
7:00 AM 66.7 °F 64.2 °F 92% 29.64 in - South 12.7 mph 19.6 mph 0.11 in   Unknown
8:00 AM 66.2 °F 63.9 °F 92% 29.62 in - South 4.6 mph - 0.10 in   Unknown
9:00 AM 66 °F 64 °F 89% 29.61 in - South 8.1 mph - -  
9:00 AM 66.0 °F 63.5 °F 92% 29.61 in - South 8.1 mph - N/A   Unknown
10:00 AM 67.3 °F 64.8 °F 92% 29.61 in - South 10.4 mph - N/A   Unknown
11:00 AM 67.6 °F 65.1 °F 92% 29.61 in - South 9.2 mph - N/A   Unknown
12:00 PM 66.9 °F 64.2 °F 91% 29.60 in - SSW 10.4 mph - N/A   Unknown
1:00 PM 66.4 °F 62.2 °F 86% 29.60 in - SW 8.1 mph - 0.01 in   Unknown
2:00 PM 65.1 °F 61.7 °F 89% 29.59 in - North 3.5 mph - N/A   Unknown
3:00 PM 64 °F 61 °F 88% 29.58 in - NE 4.6 mph - -  
3:00 PM 63.7 °F 61.3 °F 92% 29.58 in - NE 4.6 mph - N/A   Unknown
4:00 PM 62.2 °F 56.7 °F 82% 29.59 in - WNW 8.1 mph 17.3 mph N/A   Unknown
5:00 PM 61.3 °F 55.9 °F 82% 29.59 in - NW 11.5 mph - N/A   Unknown
6:00 PM 59.5 °F 54.0 °F 82% 29.61 in - WNW 9.2 mph - N/A   Unknown
7:00 PM 56.7 °F 52.3 °F 85% 29.63 in - WNW 6.9 mph - N/A   Unknown
8:00 PM 55.0 °F 51.1 °F 86% 29.65 in - West 5.8 mph - N/A   Unknown
9:00 PM 55 °F 49 °F 76% 29.66 in - WNW 10.4 mph - -  
9:00 PM 55.0 °F 49.5 °F 81% 29.66 in - WNW 10.4 mph 17.3 mph N/A   Unknown
10:00 PM 53.8 °F 48.6 °F 82% 29.67 in - West 6.9 mph - N/A   Unknown
11:00 PM 52.5 °F 46.9 °F 81% 29.68 in - West 5.8 mph - N/A   Unknown